Regional Weather Roundup
Issued by NWS

Home | Current Version | Previous Version | Graphics & Text | Print | Product List | Glossary On
Versions: 1 2 3 4 5 6 7 8 9 10 11 12 13 14 15 16 17 18 19 20 21 22 23 24 25 26 27 28 29 30 31 32 33 34 35 36 37 38 39 40 41 42 43 44 45 46 47 48 49 50
000
ASUS43 KDTX 201310
RWRMI
MICHIGAN HOURLY REGIONAL WEATHER ROUNDUP
NATIONAL WEATHER SERVICE DETROIT/PONTIAC MI
800 AM EST TUE FEB 20 2018

NOTE: "FAIR" INDICATES FEW OR NO CLOUDS BELOW 12,000 FEET WITH NO
SIGNIFICANT WEATHER AND/OR OBSTRUCTION TO VISIBILITY.

MIZ047>049-052>055-059>063-066>070-074>076-081>083-201400-
SOUTHEAST LOWER MICHIGAN

CITY           SKY/WX    TMP DP  RH WIND       PRES   REMARKS
ADRIAN         MOCLDY    55  52  89 SW13      29.98S
ALMA           RAIN      52  52 100 S13       29.87R
ANN ARBOR      CLOUDY    52  52 100 S3        29.96F
BAD AXE        LGT RAIN  51  51 100 S10G18    29.92R
CARO           LGT RAIN  55  55  98 S9G16     29.89F
DETROIT CITY   LGT RAIN  55  53  93 SW5       29.99R
DETROIT        CLOUDY    54  53  97 S7        29.98S
FLINT          RAIN      56  55  97 S9        29.93S FOG
GROSSE ILE     CLOUDY    47  46  99 S10       29.98S FOG
HILLSDALE      CLOUDY    55  54  94 S10G17    29.96R
HOWELL         RAIN      56  55  97 S13G18    29.93S

CITY           SKY/WX    TMP DP  RH WIND       PRES   REMARKS
JACKSON        LGT RAIN  58  56  93 S13       29.94R
LAMBERTVILLE   MOCLDY    61  55  81 S12G20    29.98F
LANSING        LGT RAIN  57  56  96 S13       29.89F
LAPEER         RAIN      56  55  98 S9        29.93F
MASON          RAIN      58  54  88 S6        29.91F
MONROE         FAIR      61  55  81 S15G24    29.97F
MT. CLEMENS    LGT RAIN  46  46 100 S6        29.98R VSB 1/4
PONTIAC        LGT RAIN  56  56 100 S9G18     29.96F FOG
PORT HOPE        N/A     53  52  96 SW12G23   29.86S
PORT HURON     LGT RAIN  52  50  93 S6        29.99R
TRI CITIES     LGT RAIN  53  52  96 S10G23    29.87S VSB 3/4
MIDLAND        RAIN      52  52 100 S5        29.85F
TROY           RAIN      55  54  96 S7        30.00R
SAGINAW HB     LGT RAIN  54  52  94 S14       29.87F
$$
MIZ043>046-050>051-056>058-064>065-071>073-077>080-201400-
SOUTHWEST LOWER MICHIGAN

CITY           SKY/WX    TMP DP  RH WIND       PRES   REMARKS
BATTLE CREEK   RAIN      58  56  93 S18G26    29.91R FOG
BENTON HARBOR  LGT RAIN  60  57  89 S12       29.86F FOG
BIG RAPIDS     LGT RAIN  54  52  93 SW10G18   29.82R
COLDWATER      RAIN      58  58 100 S9G16     29.94R
FREMONT        RAIN      56  55  95 SW16G22   29.83R
HOLLAND        RAIN      59  57  93 SW22G32   29.88R
GRAND RAPIDS   RAIN      59  56  89 SW13      29.88R FOG
IONIA          RAIN      55  55 100 S12       29.88R
KALAMAZOO      LGT RAIN  58  56  93 S14       29.91R FOG
LUDINGTON      HVY RAIN  49  49 100 SW8       29.80R
MARSHALL       RAIN      57  56  97 S12G17    29.92R
MOUNT PLEASANT DRZL/FOG  51  50  96 S6        29.84R VSB 3/4
MUSKEGON       RAIN      54  51  90 S23G33    29.85R FOG
SOUTH HAVEN    HVY RAIN  60  58  94 SW15      29.88R
$$
MIZ016>042-201400-
NORTHERN LOWER MICHIGAN

CITY           SKY/WX    TMP DP  RH WIND       PRES   REMARKS
ALPENA         CLOUDY    32  32 100 E7        29.90R FOG     WCI  26
BEAVER ISLAND  CLOUDY    31  30  97 E12       29.81S FOG     WCI  21
BELLAIRE       LGT SNOW  37  37 100 CALM      29.79F
CADILLAC       LGT SNOW  38  37  99 CALM      29.79S VSB 1
CHARLEVOIX     LGT RAIN  35  35 100 E10       29.82S VSB 1   WCI  27
FRANKFORT      RAIN      45  45 100 SW7       29.79R VSB 1
GAYLORD        LGT RAIN  33  33 100 SE5       29.82S FOG     WCI  29
GRAYLING       CLOUDY    34  34 100 E5        29.81F FOG     WCI  30
HARBOR SPRINGS CLOUDY    32  32  99 E6        29.83R FOG     WCI  26
HOUGHTON LAKE  CLOUDY    40  40 100 SE3       29.82F
MANISTEE       RAIN      44  44 100 W3        29.79R VSB 1/4
OSCODA         FOG       33  33  99 NE3       29.88R VSB 1/2
PELLSTON       FRZ RAIN  30  29  96 E12G20    29.86R FOG     WCI  20
ROGERS CITY    CLOUDY    30  29  97 E7        29.91S FOG     WCI  23
TRAVERSE CITY  LGT RAIN  42  40  92 CALM      29.77F FOG
$$
MIZ007>008-015-201400-
EASTERN UPPER MICHIGAN

CITY           SKY/WX    TMP DP  RH WIND       PRES   REMARKS
KINROSS        MIX PCPN  21  19  92 E16       29.88F FOG     WCI   7
MACKINAC ISLAN CLOUDY    26  26 100 E15G26    29.87R FOG     WCI  13
NEWBERRY       CLOUDY    22  21  96 E12       29.83R FOG     WCI  10
S. S. MARIE    CLOUDY    19  17  92 E10       29.88F FOG     WCI   7
MUNISING         N/A     22  22 100 CALM      29.85R
$$
MIZ004>006-011>014-085-201400-
CENTRAL UPPER MICHIGAN

CITY           SKY/WX    TMP DP  RH WIND       PRES   REMARKS
MANISTIQUE     CLOUDY    27  25  95 E6G17     29.82R FOG     WCI  20
ESCANABA       LGT SNOW  24  23  96 NW5       29.84R VSB 1   WCI  18
MENOMINEE      LGT SNOW  29  28  96 N6        29.84S FOG     WCI  23
SAWYER-GWINN   CLOUDY    21  19  93 CALM      29.82R FOG
$$
MIZ001>003-009>011-084-201400-
WESTERN UPPER MICHIGAN

CITY           SKY/WX    TMP DP  RH WIND       PRES   REMARKS
IRON MOUNTAIN  MIX PCPN  24  22  91 E5        29.77F FOG     WCI  18
HOUGHTON       CLOUDY    24  20  84 MISG      29.80F FOG
COPPER HARBOR    N/A     23  20  88 VRB6      29.87F WCI  16
IRONWOOD       LGT SNOW  18  16  93 E5        29.79F FOG     WCI  11
$$

ABBREVIATIONS USED IN REMARKS
   TC - TEMPERATURE IN CELSIUS
  WCI - WIND CHILL INDEX
   HX - HEAT INDEX
  VSB - VISIBILITY




USA.gov is the U.S. government's official web portal to all federal, state and local government web resources and services.